Terug naar catalogus

STARLINK-30116

ActiefCommunicatieVLEO
NORAD 57465·PAYLOAD·🇺🇸 United States

Gelanceerd Jul 28, 2023 vanaf Cape Canaveral Space Force Station

Loading…

Volgende Passages (komende 24 uur)

TLE

VersSource: CelesTrak SupGP

Epoch: Sep 14, 2026, 20:41 UTC

1 57465C 23107J   26257.86229167 -.00047645  00000+0 -17249-2 0  2572
2 57465  43.0038 347.8887 0001925 270.4931 214.1915 15.27616376    13

Volg STARLINK-30116 in realtime met AllMySat

Download on the App Store